This is the latest recevied weather packets stored in our database for station/object KO4FR. If no packets are shown the sender has not sent any weather packets the latest 10 day(s).
| Time | Temp. | Humidity | Pressure | Rain* | Wind** | Luminosity | Snow |
|---|---|---|---|---|---|---|---|
| 1777517715 | 16.67° C | 100% | 1009.1 hPa | 0 mm | - | - | - |
| 1777517385 | 16.67° C | 100% | 1009.1 hPa | 0 mm | - | - | - |
| 1777517115 | 16.67° C | 100% | 1009.2 hPa | 0 mm | - | - | - |
| 1777516815 | 16.67° C | 100% | 1009.2 hPa | 0 mm | - | - | - |
| 1777516515 | 17.22° C | 100% | 1009.2 hPa | 0 mm | - | - | - |
| 1777516215 | 17.22° C | 100% | 1009 hPa | 0 mm | - | - | - |
| 1777515885 | 17.22° C | 100% | 1009.1 hPa | 0 mm | - | - | - |
| 1777515585 | 17.22° C | 100% | 1009.2 hPa | 0 mm | - | - | - |
| 1777515315 | 17.22° C | 1% | 1009.3 hPa | 0 mm | - | - | - |
| 1777514985 | 17.22° C | 2% | 1009.3 hPa | 0 mm | - | - | - |
| 1777514685 | 17.22° C | 3% | 1009.1 hPa | 0 mm | - | - | - |
| 1777514385 | 17.22° C | 5% | 1009.2 hPa | 0 mm | - | - | - |
| 1777514115 | 17.22° C | 7% | 1009.1 hPa | 0 mm | - | - | - |
| 1777513785 | 17.22° C | 9% | 1009 hPa | 0 mm | - | - | - |
| 1777513485 | 17.22° C | 10% | 1008.9 hPa | 0 mm | - | - | - |
| 1777513215 | 17.22° C | 14% | 1009 hPa | 0 mm | - | - | - |
| 1777512915 | 17.22° C | 18% | 1009.1 hPa | 0 mm | - | - | - |
| 1777512615 | 17.22° C | 17% | 1008.9 hPa | 0 mm | - | - | - |
| 1777512315 | 17.22° C | 14% | 1008.8 hPa | 0 mm | - | - | - |
| 1777512015 | 17.22° C | 16% | 1008.4 hPa | 0 mm | - | - | - |
| 1777511715 | 17.22° C | 16% | 1008.5 hPa | 0 mm | - | - | - |
| 1777511385 | 17.22° C | 19% | 1008.4 hPa | 0 mm | - | - | - |
| 1777511085 | 17.22° C | 19% | 1008.5 hPa | 0 mm | - | - | - |
| 1777510815 | 17.22° C | 21% | 1008.4 hPa | 0 mm | - | - | - |
| 1777510515 | 17.22° C | 21% | 1008.7 hPa | 0 mm | - | - | - |
* Rain latest hour (hover to see other rain measurements)
** Current wind speed in m/s (hover to see current wind gust speed)